Time,TemperatureF,DewpointF,PressureIn,WindDirection,WindDirectionDegrees,WindSpeedMPH,WindSpeedGustMPH,Humidity,HourlyPrecipIn,Conditions,Clouds,dailyrainin,SoftwareType,DateUTC
2013-03-25 00:01:00,39.0,-0.9,30.08,NNW,333,2.9,6.0,18,0.00,,,0.00,meteobridge,2013-03-25 06:01:00,
2013-03-25 00:06:00,38.8,-1.1,30.08,NNW,347,0.0,4.9,18,0.00,,,0.00,meteobridge,2013-03-25 06:06:00,
2013-03-25 00:11:00,38.5,-0.2,30.08,NNW,332,0.9,4.0,19,0.00,,,0.00,meteobridge,2013-03-25 06:11:00,
2013-03-25 00:16:00,38.1,-0.6,30.09,NW,325,4.0,4.0,19,0.00,,,0.00,meteobridge,2013-03-25 06:16:00,
2013-03-25 00:21:00,37.8,-0.8,30.09,North,355,0.9,4.9,19,0.00,,,0.00,meteobridge,2013-03-25 06:21:00,
2013-03-25 00:26:00,37.6,-0.9,30.09,North,350,4.0,4.9,19,0.00,,,0.00,meteobridge,2013-03-25 06:26:00,
2013-03-25 00:31:00,37.2,-1.3,30.09,NNW,346,2.0,4.0,19,0.00,,,0.00,meteobridge,2013-03-25 06:31:00,
2013-03-25 00:36:00,37.0,-0.4,30.09,North,355,0.9,4.0,20,0.00,,,0.00,meteobridge,2013-03-25 06:36:00,
2013-03-25 00:41:00,36.9,-0.4,30.09,North,355,0.9,2.9,20,0.00,,,0.00,meteobridge,2013-03-25 06:41:00,
2013-03-25 00:46:00,36.3,-0.9,30.09,NNW,348,0.0,2.0,20,0.00,,,0.00,meteobridge,2013-03-25 06:46:00,
2013-03-25 00:52:00,36.0,-0.2,30.09,North,355,0.0,4.0,21,0.00,,,0.00,meteobridge,2013-03-25 06:52:00,
2013-03-25 00:57:00,36.0,-0.2,30.09,North,355,0.9,2.0,21,0.00,,,0.00,meteobridge,2013-03-25 06:57:00,
2013-03-25 01:02:00,35.4,-0.6,30.10,North,355,0.0,0.0,21,0.00,,,0.00,meteobridge,2013-03-25 07:02:00,
2013-03-25 01:07:00,35.1,0.0,30.10,North,355,0.0,0.0,22,0.00,,,0.00,meteobridge,2013-03-25 07:07:00,
2013-03-25 01:12:00,34.5,0.5,30.10,North,355,0.0,0.0,23,0.00,,,0.00,meteobridge,2013-03-25 07:12:00,
2013-03-25 01:18:00,34.3,0.3,30.11,North,355,0.0,0.0,23,0.00,,,0.00,meteobridge,2013-03-25 07:18:00,
2013-03-25 01:23:00,33.8,0.0,30.11,North,355,0.0,0.0,23,0.00,,,0.00,meteobridge,2013-03-25 07:23:00,
2013-03-25 01:28:00,33.6,0.7,30.11,North,355,0.0,0.0,24,0.00,,,0.00,meteobridge,2013-03-25 07:28:00,
2013-03-25 01:33:00,33.1,1.0,30.11,North,355,0.0,0.0,25,0.00,,,0.00,meteobridge,2013-03-25 07:33:00,
2013-03-25 01:38:00,32.7,0.7,30.11,North,355,0.0,0.0,25,0.00,,,0.00,meteobridge,2013-03-25 07:38:00,
2013-03-25 01:44:00,32.5,0.7,30.11,North,355,0.0,0.0,25,0.00,,,0.00,meteobridge,2013-03-25 07:44:00,
2013-03-25 01:49:00,32.5,1.4,30.11,North,355,0.0,0.9,26,0.00,,,0.00,meteobridge,2013-03-25 07:49:00,
2013-03-25 01:54:00,32.2,1.9,30.12,SE,132,0.9,0.9,27,0.00,,,0.00,meteobridge,2013-03-25 07:54:00,
2013-03-25 01:59:00,32.5,1.4,30.12,SE,133,0.0,2.0,26,0.00,,,0.00,meteobridge,2013-03-25 07:59:00,
2013-03-25 02:04:00,32.7,0.7,30.12,SE,133,0.0,0.9,25,0.00,,,0.00,meteobridge,2013-03-25 08:04:00,
2013-03-25 02:09:00,32.4,1.2,30.11,NE,46,0.0,0.9,26,0.00,,,0.00,meteobridge,2013-03-25 08:09:00,
2013-03-25 02:15:00,32.7,0.7,30.11,NE,46,0.0,0.0,25,0.00,,,0.00,meteobridge,2013-03-25 08:15:00,
2013-03-25 02:20:00,33.1,1.0,30.11,NE,46,0.0,0.9,25,0.00,,,0.00,meteobridge,2013-03-25 08:20:00,
2013-03-25 02:25:00,32.9,0.9,30.11,NE,46,0.0,0.9,25,0.00,,,0.00,meteobridge,2013-03-25 08:25:00,
2013-03-25 02:30:00,32.7,1.6,30.12,ENE,67,0.0,0.9,26,0.00,,,0.00,meteobridge,2013-03-25 08:30:00,
2013-03-25 02:35:00,32.7,1.6,30.12,NE,38,0.9,2.0,26,0.00,,,0.00,meteobridge,2013-03-25 08:35:00,
2013-03-25 02:40:00,32.7,1.6,30.12,North,355,0.9,0.9,26,0.00,,,0.00,meteobridge,2013-03-25 08:40:00,
2013-03-25 02:46:00,33.1,1.0,30.12,NNW,348,0.0,0.0,25,0.00,,,0.00,meteobridge,2013-03-25 08:46:00,
2013-03-25 02:51:00,33.1,1.0,30.12,North,5,2.0,2.0,25,0.00,,,0.00,meteobridge,2013-03-25 08:51:00,
2013-03-25 02:56:00,33.1,0.1,30.11,North,5,0.0,0.0,24,0.00,,,0.00,meteobridge,2013-03-25 08:56:00,
2013-03-25 03:02:00,32.5,0.7,30.12,SE,128,0.9,2.0,25,0.00,,,0.00,meteobridge,2013-03-25 09:02:00,
2013-03-25 03:07:00,32.2,1.2,30.12,SSE,159,0.0,0.9,26,0.00,,,0.00,meteobridge,2013-03-25 09:07:00,
2013-03-25 03:12:00,32.2,1.9,30.12,SSE,159,0.0,2.9,27,0.00,,,0.00,meteobridge,2013-03-25 09:12:00,
2013-03-25 03:17:00,32.0,1.8,30.12,SW,215,0.0,2.0,27,0.00,,,0.00,meteobridge,2013-03-25 09:17:00,
2013-03-25 03:22:00,31.3,1.2,30.12,West,275,0.0,0.0,27,0.00,,,0.00,meteobridge,2013-03-25 09:22:00,
2013-03-25 03:27:00,30.7,0.7,30.12,West,275,0.0,0.0,27,0.00,,,0.00,meteobridge,2013-03-25 09:27:00,
2013-03-25 03:32:00,30.4,1.2,30.12,West,275,0.0,0.0,28,0.00,,,0.00,meteobridge,2013-03-25 09:32:00,
2013-03-25 03:37:00,29.8,1.4,30.12,West,275,0.0,0.9,29,0.00,,,0.00,meteobridge,2013-03-25 09:37:00,
2013-03-25 03:43:00,29.7,1.9,30.13,West,275,0.0,0.0,30,0.00,,,0.00,meteobridge,2013-03-25 09:43:00,
2013-03-25 03:48:00,29.5,3.2,30.13,West,275,0.9,0.9,32,0.00,,,0.00,meteobridge,2013-03-25 09:48:00,
2013-03-25 03:53:00,29.5,3.2,30.13,West,275,0.0,0.0,32,0.00,,,0.00,meteobridge,2013-03-25 09:53:00,
2013-03-25 03:58:00,28.9,3.4,30.13,West,275,0.0,0.9,33,0.00,,,0.00,meteobridge,2013-03-25 09:58:00,
2013-03-25 04:04:00,28.8,3.9,30.14,West,275,0.0,0.0,34,0.00,,,0.00,meteobridge,2013-03-25 10:04:00,
2013-03-25 04:09:00,28.6,4.5,30.14,West,275,0.0,0.9,35,0.00,,,0.00,meteobridge,2013-03-25 10:09:00,
2013-03-25 04:14:00,28.6,4.5,30.14,West,275,0.0,0.9,35,0.00,,,0.00,meteobridge,2013-03-25 10:14:00,
2013-03-25 04:19:00,28.8,4.5,30.14,NW,313,2.0,2.0,35,0.00,,,0.00,meteobridge,2013-03-25 10:19:00,
2013-03-25 04:24:00,28.9,4.1,30.14,WSW,247,0.9,2.0,34,0.00,,,0.00,meteobridge,2013-03-25 10:24:00,
2013-03-25 04:29:00,28.6,5.0,30.14,WSW,247,0.0,0.9,36,0.00,,,0.00,meteobridge,2013-03-25 10:29:00,
2013-03-25 04:34:00,28.4,4.8,30.14,SW,230,2.0,2.9,36,0.00,,,0.00,meteobridge,2013-03-25 10:34:00,
2013-03-25 04:39:00,28.4,5.4,30.14,West,271,0.9,0.9,37,0.00,,,0.00,meteobridge,2013-03-25 10:39:00,
2013-03-25 04:44:00,28.0,5.2,30.14,West,259,0.0,0.9,37,0.00,,,0.00,meteobridge,2013-03-25 10:44:00,
2013-03-25 04:49:00,28.0,6.3,30.15,WSW,244,0.0,2.9,39,0.00,,,0.00,meteobridge,2013-03-25 10:49:00,
2013-03-25 04:54:00,27.9,6.1,30.15,NW,309,0.0,2.0,39,0.00,,,0.00,meteobridge,2013-03-25 10:54:00,
2013-03-25 04:59:00,27.9,6.1,30.15,WSW,253,0.0,0.0,39,0.00,,,0.00,meteobridge,2013-03-25 10:59:00,
2013-03-25 05:04:00,27.9,6.1,30.15,WNW,282,0.0,2.0,39,0.00,,,0.00,meteobridge,2013-03-25 11:04:00,
2013-03-25 05:09:00,28.0,6.8,30.15,West,274,0.0,0.9,40,0.00,,,0.00,meteobridge,2013-03-25 11:09:00,
2013-03-25 05:14:00,28.0,6.8,30.15,WNW,297,0.0,2.9,40,0.00,,,0.00,meteobridge,2013-03-25 11:14:00,
2013-03-25 05:19:00,27.9,6.6,30.16,WNW,293,0.0,2.0,40,0.00,,,0.00,meteobridge,2013-03-25 11:19:00,
2013-03-25 05:24:00,27.9,6.6,30.15,WNW,295,0.0,2.0,40,0.00,,,0.00,meteobridge,2013-03-25 11:24:00,
2013-03-25 05:30:00,27.9,6.6,30.16,NW,313,0.9,4.0,40,0.00,,,0.00,meteobridge,2013-03-25 11:30:00,
2013-03-25 05:35:00,27.9,6.6,30.16,West,269,0.0,4.0,40,0.00,,,0.00,meteobridge,2013-03-25 11:35:00,
2013-03-25 05:40:00,27.7,6.4,30.16,West,269,0.0,2.0,40,0.00,,,0.00,meteobridge,2013-03-25 11:40:00,
2013-03-25 05:46:00,27.5,6.8,30.16,NW,314,0.0,0.0,41,0.00,,,0.00,meteobridge,2013-03-25 11:46:00,
2013-03-25 05:51:00,27.3,6.8,30.17,NW,312,0.0,0.0,41,0.00,,,0.00,meteobridge,2013-03-25 11:51:00,
2013-03-25 05:56:00,27.1,6.6,30.17,WNW,296,0.0,2.0,41,0.00,,,0.00,meteobridge,2013-03-25 11:56:00,
2013-03-25 06:01:00,27.0,7.0,30.17,WNW,300,0.0,0.9,42,0.00,,,0.00,meteobridge,2013-03-25 12:01:00,
2013-03-25 06:06:00,26.8,6.8,30.18,WNW,300,0.0,0.0,42,0.00,,,0.00,meteobridge,2013-03-25 12:06:00,
2013-03-25 06:11:00,26.2,7.3,30.18,WNW,300,0.0,0.0,44,0.00,,,0.00,meteobridge,2013-03-25 12:11:00,
2013-03-25 06:17:00,26.1,7.2,30.18,WNW,300,0.0,0.0,44,0.00,,,0.00,meteobridge,2013-03-25 12:17:00,
2013-03-25 06:22:00,26.2,7.3,30.18,WNW,298,0.0,0.0,44,0.00,,,0.00,meteobridge,2013-03-25 12:22:00,
2013-03-25 06:27:00,26.2,7.3,30.18,WNW,298,0.0,0.9,44,0.00,,,0.00,meteobridge,2013-03-25 12:27:00,
2013-03-25 06:32:00,26.2,7.3,30.19,NW,305,0.0,0.9,44,0.00,,,0.00,meteobridge,2013-03-25 12:32:00,
2013-03-25 06:38:00,26.2,7.3,30.19,NNW,333,0.0,0.9,44,0.00,,,0.00,meteobridge,2013-03-25 12:38:00,
2013-03-25 06:43:00,26.1,7.7,30.19,NNW,333,0.0,0.0,45,0.00,,,0.00,meteobridge,2013-03-25 12:43:00,
2013-03-25 06:48:00,25.9,7.5,30.19,NNW,333,0.0,0.0,45,0.00,,,0.00,meteobridge,2013-03-25 12:48:00,
2013-03-25 06:53:00,25.9,7.9,30.19,NNW,333,0.0,0.0,46,0.00,,,0.00,meteobridge,2013-03-25 12:53:00,
2013-03-25 06:58:00,25.3,7.5,30.19,NNW,333,0.0,0.0,46,0.00,,,0.00,meteobridge,2013-03-25 12:58:00,
2013-03-25 07:03:00,25.3,7.9,30.20,NNW,333,0.0,0.0,47,0.00,,,0.00,meteobridge,2013-03-25 13:03:00,
2013-03-25 07:09:00,25.3,7.9,30.20,NNW,327,0.0,2.0,47,0.00,,,0.00,meteobridge,2013-03-25 13:09:00,
2013-03-25 07:14:00,25.2,7.7,30.20,NNW,327,0.0,0.0,47,0.00,,,0.00,meteobridge,2013-03-25 13:14:00,
2013-03-25 07:19:00,25.2,7.7,30.20,NNW,327,0.0,0.0,47,0.00,,,0.00,meteobridge,2013-03-25 13:19:00,
2013-03-25 07:24:00,25.3,7.9,30.20,NNW,327,0.0,0.0,47,0.00,,,0.00,meteobridge,2013-03-25 13:24:00,
2013-03-25 07:29:00,25.5,8.1,30.20,NNW,327,0.0,0.0,47,0.00,,,0.00,meteobridge,2013-03-25 13:29:00,
2013-03-25 07:34:00,25.7,8.2,30.20,NNW,327,0.0,0.9,47,0.00,,,0.00,meteobridge,2013-03-25 13:34:00,
2013-03-25 07:40:00,25.9,8.4,30.20,NNW,327,0.0,0.9,47,0.00,,,0.00,meteobridge,2013-03-25 13:40:00,
2013-03-25 07:45:00,26.2,8.2,30.21,NNW,327,2.0,2.0,46,0.00,,,0.00,meteobridge,2013-03-25 13:45:00,
2013-03-25 07:50:00,26.4,7.9,30.21,NNW,329,0.9,2.0,45,0.00,,,0.00,meteobridge,2013-03-25 13:50:00,
2013-03-25 07:55:00,26.8,8.2,30.21,NNW,331,0.9,2.9,45,0.00,,,0.00,meteobridge,2013-03-25 13:55:00,
2013-03-25 08:00:00,27.1,8.1,30.21,NNW,338,0.9,2.9,44,0.00,,,0.00,meteobridge,2013-03-25 14:00:00,
2013-03-25 08:05:00,27.5,8.4,30.22,West,279,0.9,2.0,44,0.00,,,0.00,meteobridge,2013-03-25 14:05:00,
2013-03-25 08:10:00,27.5,8.4,30.22,WNW,286,0.0,0.9,44,0.00,,,0.00,meteobridge,2013-03-25 14:10:00,
2013-03-25 08:15:00,27.9,8.2,30.22,NW,322,0.9,2.0,43,0.00,,,0.00,meteobridge,2013-03-25 14:15:00,
2013-03-25 08:20:00,28.2,8.6,30.22,NW,324,0.9,2.0,43,0.00,,,0.00,meteobridge,2013-03-25 14:20:00,
2013-03-25 08:25:00,28.6,8.4,30.22,WNW,290,0.0,0.9,42,0.00,,,0.00,meteobridge,2013-03-25 14:25:00,
2013-03-25 08:30:00,28.8,8.6,30.23,NNW,330,0.9,0.9,42,0.00,,,0.00,meteobridge,2013-03-25 14:30:00,
2013-03-25 08:36:00,29.3,8.6,30.23,NNW,329,0.0,2.0,41,0.00,,,0.00,meteobridge,2013-03-25 14:36:00,
2013-03-25 08:41:00,29.5,8.6,30.23,West,259,0.0,2.9,41,0.00,,,0.00,meteobridge,2013-03-25 14:41:00,
2013-03-25 08:46:00,29.8,8.4,30.23,NW,322,0.9,2.0,40,0.00,,,0.00,meteobridge,2013-03-25 14:46:00,
2013-03-25 08:51:00,30.0,8.6,30.24,NNW,341,0.9,2.9,40,0.00,,,0.00,meteobridge,2013-03-25 14:51:00,
2013-03-25 08:56:00,30.6,8.6,30.24,NNW,332,0.0,0.9,39,0.00,,,0.00,meteobridge,2013-03-25 14:56:00,
2013-03-25 09:01:00,30.6,8.6,30.24,WSW,240,0.0,2.9,39,0.00,,,0.00,meteobridge,2013-03-25 15:01:00,
2013-03-25 09:06:00,31.1,8.4,30.24,SW,230,0.0,2.9,38,0.00,,,0.00,meteobridge,2013-03-25 15:06:00,
2013-03-25 09:11:00,30.9,8.2,30.24,WSW,242,0.0,2.9,38,0.00,,,0.00,meteobridge,2013-03-25 15:11:00,
2013-03-25 09:16:00,31.5,8.8,30.24,WNW,285,0.9,2.9,38,0.00,,,0.00,meteobridge,2013-03-25 15:16:00,
2013-03-25 09:21:00,32.2,8.2,30.24,NW,319,0.0,2.0,36,0.00,,,0.00,meteobridge,2013-03-25 15:21:00,
2013-03-25 09:27:00,32.2,8.2,30.24,SW,236,0.9,2.0,36,0.00,,,0.00,meteobridge,2013-03-25 15:27:00,
2013-03-25 09:32:00,32.4,8.4,30.24,NNW,336,2.9,4.0,36,0.00,,,0.00,meteobridge,2013-03-25 15:32:00,
2013-03-25 09:37:00,32.5,8.6,30.24,NNW,336,0.0,2.9,36,0.00,,,0.00,meteobridge,2013-03-25 15:37:00,
2013-03-25 09:42:00,32.5,7.9,30.24,West,266,0.9,2.9,35,0.00,,,0.00,meteobridge,2013-03-25 15:42:00,
2013-03-25 09:47:00,32.5,7.9,30.24,WNW,294,0.0,2.0,35,0.00,,,0.00,meteobridge,2013-03-25 15:47:00,
2013-03-25 09:52:00,32.5,7.9,30.24,WNW,288,2.0,2.0,35,0.00,,,0.00,meteobridge,2013-03-25 15:52:00,
2013-03-25 09:57:00,33.4,8.1,30.24,North,355,0.9,4.0,34,0.00,,,0.00,meteobridge,2013-03-25 15:57:00,
2013-03-25 10:02:00,33.4,8.1,30.24,SSE,152,2.0,2.9,34,0.00,,,0.00,meteobridge,2013-03-25 16:02:00,
2013-03-25 10:07:00,34.2,8.8,30.24,NE,38,2.9,4.0,34,0.00,,,0.00,meteobridge,2013-03-25 16:07:00,
2013-03-25 10:12:00,34.5,7.7,30.24,SW,223,0.0,2.9,32,0.00,,,0.00,meteobridge,2013-03-25 16:12:00,
2013-03-25 10:17:00,34.3,8.2,30.24,NNW,345,0.9,0.9,33,0.00,,,0.00,meteobridge,2013-03-25 16:17:00,
2013-03-25 10:22:00,35.8,8.1,30.24,North,5,0.9,2.9,31,0.00,,,0.00,meteobridge,2013-03-25 16:22:00,
2013-03-25 10:27:00,35.2,7.7,30.24,SSE,149,2.0,4.0,31,0.00,,,0.00,meteobridge,2013-03-25 16:27:00,
2013-03-25 10:32:00,36.0,8.2,30.24,NNW,334,2.0,2.9,31,0.00,,,0.00,meteobridge,2013-03-25 16:32:00,
2013-03-25 10:37:00,36.0,7.5,30.25,NW,314,0.9,4.0,30,0.00,,,0.00,meteobridge,2013-03-25 16:37:00,
2013-03-25 10:43:00,36.0,8.2,30.25,SW,235,0.9,4.0,31,0.00,,,0.00,meteobridge,2013-03-25 16:43:00,
2013-03-25 10:48:00,36.5,7.2,30.24,NW,307,0.0,2.9,29,0.00,,,0.00,meteobridge,2013-03-25 16:48:00,
2013-03-25 10:53:00,37.8,7.5,30.24,NW,317,0.0,0.9,28,0.00,,,0.00,meteobridge,2013-03-25 16:53:00,
2013-03-25 10:58:00,39.4,8.2,30.24,North,349,2.0,2.9,27,0.00,,,0.00,meteobridge,2013-03-25 16:58:00,
2013-03-25 11:03:00,39.6,7.5,30.24,WNW,298,2.9,4.9,26,0.00,,,0.00,meteobridge,2013-03-25 17:03:00,
2013-03-25 11:08:00,39.4,8.2,30.24,WSW,258,2.0,2.0,27,0.00,,,0.00,meteobridge,2013-03-25 17:08:00,
2013-03-25 11:13:00,38.7,7.5,30.24,West,279,2.0,4.0,27,0.00,,,0.00,meteobridge,2013-03-25 17:13:00,
2013-03-25 11:18:00,39.4,7.3,30.24,North,355,0.9,4.0,26,0.00,,,0.00,meteobridge,2013-03-25 17:18:00,
2013-03-25 11:23:00,39.7,7.7,30.24,North,349,4.0,4.9,26,0.00,,,0.00,meteobridge,2013-03-25 17:23:00,
2013-03-25 11:28:00,41.2,7.2,30.24,East,99,0.0,2.0,24,0.00,,,0.00,meteobridge,2013-03-25 17:28:00,
2013-03-25 11:33:00,40.6,6.6,30.24,West,271,0.0,2.0,24,0.00,,,0.00,meteobridge,2013-03-25 17:33:00,
2013-03-25 11:38:00,40.6,6.6,30.23,North,351,0.0,2.9,24,0.00,,,0.00,meteobridge,2013-03-25 17:38:00,
2013-03-25 11:43:00,41.5,6.4,30.23,WNW,303,2.0,4.0,23,0.00,,,0.00,meteobridge,2013-03-25 17:43:00,
2013-03-25 11:48:00,40.5,5.5,30.23,South,188,2.0,2.9,23,0.00,,,0.00,meteobridge,2013-03-25 17:48:00,
2013-03-25 11:53:00,41.9,5.7,30.23,NNW,332,0.9,2.9,22,0.00,,,0.00,meteobridge,2013-03-25 17:53:00,
2013-03-25 11:59:00,43.2,5.9,30.23,WNW,294,0.9,2.9,21,0.00,,,0.00,meteobridge,2013-03-25 17:59:00,
2013-03-25 12:04:00,43.0,6.8,30.22,WSW,254,0.9,2.9,22,0.00,,,0.00,meteobridge,2013-03-25 18:04:00,
2013-03-25 12:09:00,43.5,5.0,30.22,NNW,343,2.0,6.0,20,0.00,,,0.00,meteobridge,2013-03-25 18:09:00,
2013-03-25 12:14:00,42.6,4.3,30.22,NNE,24,0.9,2.9,20,0.00,,,0.00,meteobridge,2013-03-25 18:14:00,
2013-03-25 12:19:00,43.0,4.6,30.21,NNE,17,2.0,4.0,20,0.00,,,0.00,meteobridge,2013-03-25 18:19:00,
2013-03-25 12:24:00,44.4,4.6,30.21,NE,56,2.9,4.0,19,0.00,,,0.00,meteobridge,2013-03-25 18:24:00,
2013-03-25 12:29:00,44.2,4.6,30.20,NW,320,0.0,2.9,19,0.00,,,0.00,meteobridge,2013-03-25 18:29:00,
2013-03-25 12:34:00,44.8,5.0,30.20,WNW,299,0.9,4.0,19,0.00,,,0.00,meteobridge,2013-03-25 18:34:00,
2013-03-25 12:39:00,45.3,4.3,30.20,North,5,4.0,8.1,18,0.00,,,0.00,meteobridge,2013-03-25 18:39:00,
2013-03-25 12:44:00,45.5,4.5,30.20,NNE,24,2.0,6.9,18,0.00,,,0.00,meteobridge,2013-03-25 18:44:00,
2013-03-25 12:49:00,45.7,5.7,30.19,WNW,282,0.0,2.0,19,0.00,,,0.00,meteobridge,2013-03-25 18:49:00,
2013-03-25 12:54:00,45.7,3.4,30.19,NW,308,0.9,2.0,17,0.00,,,0.00,meteobridge,2013-03-25 18:54:00,
2013-03-25 12:59:00,45.7,3.4,30.19,West,273,0.0,4.9,17,0.00,,,0.00,meteobridge,2013-03-25 18:59:00,
2013-03-25 13:04:00,46.0,6.1,30.19,WNW,298,0.0,2.0,19,0.00,,,0.00,meteobridge,2013-03-25 19:04:00,
2013-03-25 13:09:00,46.8,4.3,30.19,North,351,0.9,2.0,17,0.00,,,0.00,meteobridge,2013-03-25 19:09:00,
2013-03-25 13:14:00,46.8,4.3,30.19,NNE,26,6.0,6.0,17,0.00,,,0.00,meteobridge,2013-03-25 19:14:00,
2013-03-25 13:19:00,46.0,3.6,30.19,SSE,159,2.0,2.0,17,0.00,,,0.00,meteobridge,2013-03-25 19:19:00,
2013-03-25 13:24:00,46.9,4.5,30.19,NNW,333,6.0,6.9,17,0.00,,,0.00,meteobridge,2013-03-25 19:24:00,
2013-03-25 13:29:00,46.9,4.5,30.18,NE,47,2.0,6.0,17,0.00,,,0.00,meteobridge,2013-03-25 19:29:00,
2013-03-25 13:34:00,47.8,6.4,30.18,WNW,298,2.0,2.9,18,0.00,,,0.00,meteobridge,2013-03-25 19:34:00,
2013-03-25 13:39:00,48.6,5.7,30.18,SSW,209,4.9,4.9,17,0.00,,,0.00,meteobridge,2013-03-25 19:39:00,
2013-03-25 13:44:00,48.4,6.8,30.17,SW,218,2.0,4.9,18,0.00,,,0.00,meteobridge,2013-03-25 19:44:00,
2013-03-25 13:49:00,46.8,5.5,30.17,SSE,161,4.0,6.0,18,0.00,,,0.00,meteobridge,2013-03-25 19:49:00,
2013-03-25 13:54:00,47.5,4.8,30.16,South,173,6.0,8.9,17,0.00,,,0.00,meteobridge,2013-03-25 19:54:00,
2013-03-25 13:59:00,48.6,5.7,30.16,South,171,2.9,6.0,17,0.00,,,0.00,meteobridge,2013-03-25 19:59:00,
2013-03-25 14:04:00,48.9,6.1,30.16,ESE,120,2.0,4.9,17,0.00,,,0.00,meteobridge,2013-03-25 20:04:00,
2013-03-25 14:10:00,48.6,5.7,30.16,SSW,202,2.9,4.9,17,0.00,,,0.00,meteobridge,2013-03-25 20:10:00,
2013-03-25 14:15:00,48.4,5.5,30.16,SW,225,4.0,4.0,17,0.00,,,0.00,meteobridge,2013-03-25 20:15:00,
2013-03-25 14:20:00,47.8,5.2,30.15,NNW,334,2.0,6.0,17,0.00,,,0.00,meteobridge,2013-03-25 20:20:00,
2013-03-25 14:25:00,49.1,4.8,30.15,SE,135,4.9,6.0,16,0.00,,,0.00,meteobridge,2013-03-25 20:25:00,
2013-03-25 14:30:00,50.2,5.7,30.15,ESE,117,4.0,4.9,16,0.00,,,0.00,meteobridge,2013-03-25 20:30:00,
2013-03-25 14:35:00,48.6,5.7,30.15,SSE,155,2.0,4.9,17,0.00,,,0.00,meteobridge,2013-03-25 20:35:00,
2013-03-25 14:40:00,49.6,6.6,30.15,North,0,0.0,2.9,17,0.00,,,0.00,meteobridge,2013-03-25 20:40:00,
2013-03-25 14:45:00,49.8,5.4,30.15,SW,229,4.9,8.9,16,0.00,,,0.00,meteobridge,2013-03-25 20:45:00,
2013-03-25 14:50:00,48.9,4.6,30.14,SW,225,0.9,4.0,16,0.00,,,0.00,meteobridge,2013-03-25 20:50:00,
2013-03-25 14:55:00,49.6,5.2,30.14,ESE,114,2.0,6.0,16,0.00,,,0.00,meteobridge,2013-03-25 20:55:00,
2013-03-25 15:00:00,50.4,5.9,30.14,East,84,0.0,6.0,16,0.00,,,0.00,meteobridge,2013-03-25 21:00:00,
2013-03-25 15:05:00,50.9,4.8,30.14,SW,219,4.9,8.1,15,0.00,,,0.00,meteobridge,2013-03-25 21:05:00,
2013-03-25 15:10:00,51.1,6.4,30.13,SSW,196,0.9,4.0,16,0.00,,,0.00,meteobridge,2013-03-25 21:10:00,
2013-03-25 15:15:00,51.3,6.6,30.13,ENE,62,0.9,2.0,16,0.00,,,0.00,meteobridge,2013-03-25 21:15:00,
2013-03-25 15:20:00,51.6,6.8,30.13,SW,223,0.0,4.0,16,0.00,,,0.00,meteobridge,2013-03-25 21:20:00,
2013-03-25 15:25:00,52.5,6.3,30.12,ESE,114,2.0,6.0,15,0.00,,,0.00,meteobridge,2013-03-25 21:25:00,
2013-03-25 15:30:00,51.6,5.4,30.12,SSW,203,0.9,6.9,15,0.00,,,0.00,meteobridge,2013-03-25 21:30:00,
2013-03-25 15:35:00,52.2,5.9,30.12,SSE,156,4.9,6.9,15,0.00,,,0.00,meteobridge,2013-03-25 21:35:00,
2013-03-25 15:40:00,51.4,5.4,30.11,WSW,257,0.9,4.0,15,0.00,,,0.00,meteobridge,2013-03-25 21:40:00,
2013-03-25 15:45:00,51.3,5.2,30.11,ESE,118,6.9,6.9,15,0.00,,,0.00,meteobridge,2013-03-25 21:45:00,
2013-03-25 15:50:00,53.1,6.6,30.11,SW,234,2.0,6.9,15,0.00,,,0.00,meteobridge,2013-03-25 21:50:00,
2013-03-25 15:55:00,53.2,6.8,30.11,NW,323,2.0,6.9,15,0.00,,,0.00,meteobridge,2013-03-25 21:55:00,
2013-03-25 16:00:00,53.4,5.4,30.11,SSE,159,4.9,6.0,14,0.00,,,0.00,meteobridge,2013-03-25 22:00:00,
2013-03-25 16:05:00,51.8,5.5,30.10,ESE,108,0.0,2.9,15,0.00,,,0.00,meteobridge,2013-03-25 22:05:00,
2013-03-25 16:10:00,52.3,6.1,30.10,SSE,159,2.0,6.9,15,0.00,,,0.00,meteobridge,2013-03-25 22:10:00,
2013-03-25 16:15:00,52.5,6.3,30.10,SSW,213,2.9,4.9,15,0.00,,,0.00,meteobridge,2013-03-25 22:15:00,
2013-03-25 16:20:00,53.4,5.4,30.10,South,180,2.9,2.9,14,0.00,,,0.00,meteobridge,2013-03-25 22:20:00,
2013-03-25 16:25:00,54.9,6.6,30.10,SSE,154,2.9,6.0,14,0.00,,,0.00,meteobridge,2013-03-25 22:25:00,
2013-03-25 16:31:00,54.0,5.9,30.09,SSE,155,4.0,8.9,14,0.00,,,0.00,meteobridge,2013-03-25 22:31:00,
2013-03-25 16:36:00,54.5,6.3,30.09,South,172,6.9,6.9,14,0.00,,,0.00,meteobridge,2013-03-25 22:36:00,
2013-03-25 16:41:00,54.3,6.1,30.09,SSE,157,0.0,2.9,14,0.00,,,0.00,meteobridge,2013-03-25 22:41:00,
2013-03-25 16:46:00,54.9,6.6,30.08,SSW,202,2.0,2.9,14,0.00,,,0.00,meteobridge,2013-03-25 22:46:00,
2013-03-25 16:51:00,55.8,7.3,30.08,West,261,6.9,8.1,14,0.00,,,0.00,meteobridge,2013-03-25 22:51:00,
2013-03-25 16:56:00,56.1,7.5,30.08,NNW,340,6.0,6.9,14,0.00,,,0.00,meteobridge,2013-03-25 22:56:00,
2013-03-25 17:01:00,56.1,7.5,30.08,NW,319,2.0,6.0,14,0.00,,,0.00,meteobridge,2013-03-25 23:01:00,
2013-03-25 17:06:00,56.5,7.9,30.08,WSW,254,2.9,6.9,14,0.00,,,0.00,meteobridge,2013-03-25 23:06:00,
2013-03-25 17:11:00,55.9,7.3,30.08,SSW,212,4.0,8.9,14,0.00,,,0.00,meteobridge,2013-03-25 23:11:00,
2013-03-25 17:16:00,55.9,7.3,30.08,WNW,301,0.0,6.0,14,0.00,,,0.00,meteobridge,2013-03-25 23:16:00,
2013-03-25 17:21:00,56.8,8.1,30.08,West,273,0.9,4.9,14,0.00,,,0.00,meteobridge,2013-03-25 23:21:00,
2013-03-25 17:26:00,56.3,7.7,30.08,SSW,212,2.0,6.9,14,0.00,,,0.00,meteobridge,2013-03-25 23:26:00,
2013-03-25 17:31:00,55.8,7.3,30.08,WSW,244,2.0,6.0,14,0.00,,,0.00,meteobridge,2013-03-25 23:31:00,
2013-03-25 17:36:00,56.1,7.5,30.07,WSW,248,2.0,4.0,14,0.00,,,0.00,meteobridge,2013-03-25 23:36:00,
2013-03-25 17:42:00,56.5,7.9,30.07,WSW,244,0.0,4.9,14,0.00,,,0.00,meteobridge,2013-03-25 23:42:00,
2013-03-25 17:47:00,56.8,8.1,30.07,West,263,2.0,4.0,14,0.00,,,0.00,meteobridge,2013-03-25 23:47:00,
2013-03-25 17:52:00,56.3,7.7,30.07,NW,326,2.0,4.9,14,0.00,,,0.00,meteobridge,2013-03-25 23:52:00,
2013-03-25 17:57:00,55.9,7.3,30.07,NNW,341,2.9,4.9,14,0.00,,,0.00,meteobridge,2013-03-25 23:57:00,
2013-03-25 18:02:00,55.9,7.3,30.07,NW,308,0.0,4.9,14,0.00,,,0.00,meteobridge,2013-03-26 00:02:00,
2013-03-25 18:07:00,55.9,7.3,30.07,WNW,296,2.0,4.0,14,0.00,,,0.00,meteobridge,2013-03-26 00:07:00,
2013-03-25 18:12:00,55.9,7.3,30.08,North,0,4.9,6.9,14,0.00,,,0.00,meteobridge,2013-03-26 00:12:00,
2013-03-25 18:17:00,55.6,8.6,30.07,WNW,300,2.0,4.9,15,0.00,,,0.00,meteobridge,2013-03-26 00:17:00,
2013-03-25 18:22:00,55.6,8.6,30.07,NNE,13,4.9,8.9,15,0.00,,,0.00,meteobridge,2013-03-26 00:22:00,
2013-03-25 18:27:00,55.6,8.6,30.08,NW,317,2.0,8.9,15,0.00,,,0.00,meteobridge,2013-03-26 00:27:00,
2013-03-25 18:32:00,55.2,8.4,30.08,NW,315,2.9,6.9,15,0.00,,,0.00,meteobridge,2013-03-26 00:32:00,
2013-03-25 18:37:00,55.0,8.2,30.08,NNW,329,4.0,8.1,15,0.00,,,0.00,meteobridge,2013-03-26 00:37:00,
2013-03-25 18:42:00,54.7,7.9,30.08,NNW,340,6.0,10.1,15,0.00,,,0.00,meteobridge,2013-03-26 00:42:00,
2013-03-25 18:47:00,54.5,7.7,30.08,NNW,341,8.1,11.0,15,0.00,,,0.00,meteobridge,2013-03-26 00:47:00,
2013-03-25 18:52:00,54.1,7.5,30.08,NNW,342,2.9,12.1,15,0.00,,,0.00,meteobridge,2013-03-26 00:52:00,
2013-03-25 18:57:00,54.1,9.0,30.08,NNW,348,8.1,14.1,16,0.00,,,0.00,meteobridge,2013-03-26 00:57:00,
2013-03-25 19:02:00,53.8,8.6,30.08,WNW,293,2.0,4.0,16,0.00,,,0.00,meteobridge,2013-03-26 01:02:00,
2013-03-25 19:07:00,53.4,8.2,30.09,NNW,331,2.0,4.0,16,0.00,,,0.00,meteobridge,2013-03-26 01:07:00,
2013-03-25 19:12:00,53.2,8.2,30.09,NW,317,2.9,4.9,16,0.00,,,0.00,meteobridge,2013-03-26 01:12:00,
2013-03-25 19:17:00,53.1,8.1,30.09,NNW,335,2.9,4.0,16,0.00,,,0.00,meteobridge,2013-03-26 01:17:00,
2013-03-25 19:22:00,53.1,8.1,30.09,NW,309,2.0,4.0,16,0.00,,,0.00,meteobridge,2013-03-26 01:22:00,
2013-03-25 19:27:00,52.9,9.3,30.10,NW,313,2.0,6.0,17,0.00,,,0.00,meteobridge,2013-03-26 01:27:00,
2013-03-25 19:32:00,52.7,9.1,30.10,NNW,333,0.9,4.0,17,0.00,,,0.00,meteobridge,2013-03-26 01:32:00,
2013-03-25 19:38:00,52.5,9.0,30.10,NNW,328,2.0,8.1,17,0.00,,,0.00,meteobridge,2013-03-26 01:38:00,
2013-03-25 19:43:00,52.3,8.8,30.10,North,355,4.9,8.1,17,0.00,,,0.00,meteobridge,2013-03-26 01:43:00,
2013-03-25 19:48:00,52.3,8.8,30.10,NNW,342,4.0,6.0,17,0.00,,,0.00,meteobridge,2013-03-26 01:48:00,
2013-03-25 19:53:00,52.2,8.6,30.10,NNW,341,0.0,4.9,17,0.00,,,0.00,meteobridge,2013-03-26 01:53:00,
2013-03-25 19:58:00,51.8,9.7,30.11,NNW,347,2.0,4.0,18,0.00,,,0.00,meteobridge,2013-03-26 01:58:00,
2013-03-25 20:03:00,51.8,9.7,30.11,North,349,0.9,4.0,18,0.00,,,0.00,meteobridge,2013-03-26 02:03:00,
2013-03-25 20:08:00,51.6,9.5,30.11,North,0,2.0,4.9,18,0.00,,,0.00,meteobridge,2013-03-26 02:08:00,
2013-03-25 20:13:00,51.4,9.3,30.11,North,350,2.0,2.9,18,0.00,,,0.00,meteobridge,2013-03-26 02:13:00,
2013-03-25 20:18:00,51.3,9.1,30.11,NNW,339,2.0,4.9,18,0.00,,,0.00,meteobridge,2013-03-26 02:18:00,
2013-03-25 20:23:00,51.3,9.1,30.11,NNW,343,2.0,6.0,18,0.00,,,0.00,meteobridge,2013-03-26 02:23:00,
2013-03-25 20:28:00,51.1,9.0,30.11,NNW,340,2.0,4.0,18,0.00,,,0.00,meteobridge,2013-03-26 02:28:00,
2013-03-25 20:33:00,50.9,10.0,30.12,North,351,0.9,2.9,19,0.00,,,0.00,meteobridge,2013-03-26 02:33:00,
2013-03-25 20:38:00,50.7,9.9,30.12,NNW,348,0.9,4.0,19,0.00,,,0.00,meteobridge,2013-03-26 02:38:00,
2013-03-25 20:43:00,50.4,9.7,30.12,NNW,348,0.0,0.0,19,0.00,,,0.00,meteobridge,2013-03-26 02:43:00,
2013-03-25 20:48:00,50.2,9.5,30.13,NNW,348,0.0,0.0,19,0.00,,,0.00,meteobridge,2013-03-26 02:48:00,
2013-03-25 20:53:00,49.8,9.1,30.13,NNW,348,0.0,0.0,19,0.00,,,0.00,meteobridge,2013-03-26 02:53:00,
2013-03-25 20:58:00,49.6,10.2,30.14,NNW,347,0.0,0.9,20,0.00,,,0.00,meteobridge,2013-03-26 02:58:00,
2013-03-25 21:03:00,49.5,10.0,30.14,NW,323,0.0,2.0,20,0.00,,,0.00,meteobridge,2013-03-26 03:03:00,
2013-03-25 21:08:00,49.3,9.9,30.14,NW,323,0.0,0.9,20,0.00,,,0.00,meteobridge,2013-03-26 03:08:00,
2013-03-25 21:13:00,49.3,8.8,30.15,SW,231,0.0,2.0,19,0.00,,,0.00,meteobridge,2013-03-26 03:13:00,
2013-03-25 21:18:00,49.3,8.8,30.15,SSW,203,2.0,4.9,19,0.00,,,0.00,meteobridge,2013-03-26 03:18:00,
2013-03-25 21:23:00,49.5,9.0,30.16,SSW,210,0.9,2.9,19,0.00,,,0.00,meteobridge,2013-03-26 03:23:00,
2013-03-25 21:28:00,49.5,7.7,30.16,SSW,211,0.9,0.9,18,0.00,,,0.00,meteobridge,2013-03-26 03:28:00,
2013-03-25 21:33:00,49.3,7.5,30.16,SSW,212,0.0,2.9,18,0.00,,,0.00,meteobridge,2013-03-26 03:33:00,
2013-03-25 21:38:00,48.9,8.4,30.16,SW,224,0.0,0.9,19,0.00,,,0.00,meteobridge,2013-03-26 03:38:00,
2013-03-25 21:43:00,48.9,8.4,30.16,SW,221,0.0,2.0,19,0.00,,,0.00,meteobridge,2013-03-26 03:43:00,
2013-03-25 21:48:00,48.9,7.2,30.16,SW,215,2.0,2.9,18,0.00,,,0.00,meteobridge,2013-03-26 03:48:00,
2013-03-25 21:54:00,49.1,8.6,30.17,SW,219,0.9,2.0,19,0.00,,,0.00,meteobridge,2013-03-26 03:54:00,
2013-03-25 21:59:00,48.9,8.4,30.17,SW,219,0.0,0.0,19,0.00,,,0.00,meteobridge,2013-03-26 03:59:00,
2013-03-25 22:00:00,48.9,7.2,30.17,SW,219,0.0,0.0,18,0.00,,,0.00,meteobridge,2013-03-26 04:00:00,
2013-03-25 22:01:00,48.9,7.2,30.17,SW,219,0.0,0.0,18,0.00,,,0.00,meteobridge,2013-03-26 04:01:00,
2013-03-25 22:06:00,48.7,8.2,30.17,SW,219,0.0,0.9,19,0.00,,,0.00,meteobridge,2013-03-26 04:06:00,
2013-03-25 22:07:00,48.7,8.2,30.17,SW,219,0.0,0.0,19,0.00,,,0.00,meteobridge,2013-03-26 04:07:00,
2013-03-25 22:12:00,48.6,8.1,30.17,SW,219,0.9,0.9,19,0.00,,,0.00,meteobridge,2013-03-26 04:12:00,
2013-03-25 22:17:00,48.2,9.0,30.18,SW,219,0.0,0.9,20,0.00,,,0.00,meteobridge,2013-03-26 04:17:00,
2013-03-25 22:22:00,48.2,7.9,30.17,SW,219,0.0,0.9,19,0.00,,,0.00,meteobridge,2013-03-26 04:22:00,
2013-03-25 22:27:00,48.2,7.9,30.18,SW,219,0.9,0.9,19,0.00,,,0.00,meteobridge,2013-03-26 04:27:00,
2013-03-25 22:32:00,48.0,8.8,30.18,SW,219,2.0,2.0,20,0.00,,,0.00,meteobridge,2013-03-26 04:32:00,
2013-03-25 22:38:00,48.0,8.8,30.18,SW,219,0.0,0.9,20,0.00,,,0.00,meteobridge,2013-03-26 04:38:00,
2013-03-25 22:43:00,48.0,8.8,30.18,SW,219,0.0,0.0,20,0.00,,,0.00,meteobridge,2013-03-26 04:43:00,
2013-03-25 22:48:00,47.8,8.6,30.18,SW,219,0.0,0.0,20,0.00,,,0.00,meteobridge,2013-03-26 04:48:00,
2013-03-25 22:53:00,47.8,8.6,30.18,SW,219,0.0,0.0,20,0.00,,,0.00,meteobridge,2013-03-26 04:53:00,
2013-03-25 22:58:00,47.7,8.6,30.18,SW,219,0.9,0.9,20,0.00,,,0.00,meteobridge,2013-03-26 04:58:00,
2013-03-25 23:03:00,47.5,9.5,30.18,NW,319,0.0,0.0,21,0.00,,,0.00,meteobridge,2013-03-26 05:03:00,
2013-03-25 23:09:00,47.7,9.7,30.18,NW,319,0.0,0.0,21,0.00,,,0.00,meteobridge,2013-03-26 05:09:00,
2013-03-25 23:14:00,47.5,10.6,30.19,NW,319,0.0,0.0,22,0.00,,,0.00,meteobridge,2013-03-26 05:14:00,
2013-03-25 23:19:00,46.9,10.0,30.18,NW,319,0.0,0.0,22,0.00,,,0.00,meteobridge,2013-03-26 05:19:00,
2013-03-25 23:24:00,46.6,9.7,30.18,NW,319,0.0,0.0,22,0.00,,,0.00,meteobridge,2013-03-26 05:24:00,
2013-03-25 23:29:00,46.6,7.7,30.19,SE,130,0.9,8.1,20,0.00,,,0.00,meteobridge,2013-03-26 05:29:00,
2013-03-25 23:34:00,46.2,8.4,30.18,ESE,106,2.9,4.9,21,0.00,,,0.00,meteobridge,2013-03-26 05:34:00,
2013-03-25 23:39:00,45.9,7.0,30.18,ESE,113,4.0,4.9,20,0.00,,,0.00,meteobridge,2013-03-26 05:39:00,
2013-03-25 23:44:00,45.7,7.9,30.19,SE,124,2.0,6.0,21,0.00,,,0.00,meteobridge,2013-03-26 05:44:00,
2013-03-25 23:49:00,45.3,7.7,30.18,ESE,113,0.9,2.9,21,0.00,,,0.00,meteobridge,2013-03-26 05:49:00,
2013-03-25 23:54:00,45.0,7.3,30.18,ESE,113,2.0,6.9,21,0.00,,,0.00,meteobridge,2013-03-26 05:54:00,
2013-03-25 23:59:00,44.8,8.2,30.18,ESE,105,4.9,4.9,22,0.00,,,0.00,meteobridge,2013-03-26 05:59:00,